Weather History for KUNU - May, 2013

Change the Weather History Date:

Tuesday, May 28, 2013

  Actual Average Record
Temperature  
Mean Temperature 60 °F -  
Max Temperature 72 °F 65 °F 93 °F (1978)
Min Temperature 49 °F 48 °F 33 °F (2007)
Degree Days  
Heating Degree Days 5    
Growing Degree Days 10 (Base 50)    
Moisture  
Dew Point 57 °F    
Average Humidity 95    
Maximum Humidity 100    
Minimum Humidity 73    
Precipitation  
Precipitation 0.46 in - - ()
Sea Level Pressure  
Sea Level Pressure 29.79 in    
Wind  
Wind Speed 6 mph (ENE)    
Max Wind Speed 10 mph    
Max Gust Speed -    
Visibility 5 miles    
Events Fog , Rain , Thunderstorm    
Averages and records for this station are not official NWS values.
T = Trace of Precipitation, MM = Missing Value Source: NWS Daily Summary

Daily Weather History Graph

Daily Weather History Graph

Search for Another Location

Airport or City:

Trip Planner

Search our weather history database for the weather conditions in past years. The results will help you decide how hot, cold, wet, or windy it might be!

Date:

Astronomy

May. 28, 2013 Rise Set
Actual Time 5:19 AM CDT 8:25 PM CDT
Civil Twilight 4:44 AM CDT 9:00 PM CDT
Nautical Twilight 4:00 AM CDT 9:44 PM CDT
Astronomical Twilight 3:07 AM CDT 10:37 PM CDT
Moon 11:45 PM CDT (5/28) 9:09 AM CDT (5/28)
Length of Visible Light 16h 15m
Length of Day
15h 06m
Waning Gibbous, 82% of the Moon is Illuminated
May 28
Waning Gibbous
May 31
Last Quarter
Jun 8
New
Jun 16
First Quarter
Jun 23
Full

Hourly Weather History & Observations

Time (CDT) Temp. Dew Point Humidity Pressure Visibility Wind Dir Wind Speed Gust Speed Precip Events Conditions
12:15 AM 50.0 °F 49.8 °F 99% 29.92 in 1.2 mi East 8.1 mph - N/A   Overcast
12:35 AM 49.8 °F 49.8 °F 100% 29.92 in 1.0 mi ESE 6.9 mph - N/A   Overcast
12:55 AM 49.8 °F 49.8 °F 100% 29.90 in 0.8 mi East 5.8 mph - N/A   Overcast
1:15 AM 50.0 °F 50.0 °F 100% 29.90 in 0.8 mi ENE 4.6 mph - N/A   Overcast
1:35 AM 50.0 °F 50.0 °F 100% 29.87 in 0.8 mi ENE 5.8 mph - N/A   Overcast
1:55 AM 50.0 °F 50.0 °F 100% 29.86 in 0.8 mi ENE 6.9 mph - N/A   Overcast
2:15 AM 50.0 °F 50.0 °F 100% 29.86 in 0.5 mi East 5.8 mph - N/A Fog Fog
2:35 AM 50.0 °F 50.0 °F 100% 29.86 in 0.5 mi ENE 4.6 mph - N/A Fog Fog
2:55 AM 50.0 °F 50.0 °F 100% 29.86 in 0.5 mi ENE 5.8 mph - N/A Rain Light Rain
3:15 AM 50.0 °F 50.0 °F 100% 29.84 in 1.0 mi East 6.9 mph - N/A   Light Drizzle
3:35 AM 50.0 °F 50.0 °F 100% 29.84 in 1.0 mi East 8.1 mph - N/A Rain Light Rain
3:55 AM 50.0 °F 50.0 °F 100% 29.84 in 1.2 mi ENE 9.2 mph - N/A   Overcast
4:15 AM 50.0 °F 50.0 °F 100% 29.84 in 1.5 mi East 6.9 mph - N/A   Overcast
4:35 AM 50.0 °F 50.0 °F 100% 29.82 in 1.8 mi ENE 8.1 mph - N/A   Light Drizzle
4:55 AM 50.2 °F 50.2 °F 100% 29.82 in 2.5 mi ENE 5.8 mph - N/A Rain Light Rain
5:15 AM 50.4 °F 50.4 °F 100% 29.82 in 3.0 mi ENE 6.9 mph - N/A   Overcast
5:35 AM 50.4 °F 50.4 °F 100% 29.81 in 3.0 mi NE 6.9 mph - 0.01 in Rain Rain
5:55 AM 50.5 °F 50.5 °F 100% 29.81 in 4.0 mi ENE 6.9 mph - 0.02 in Rain Light Rain
6:15 AM 50.9 °F 50.9 °F 100% 29.81 in 4.0 mi ENE 4.6 mph - N/A   Light Drizzle
6:35 AM 50.9 °F 50.9 °F 100% 29.80 in 5.0 mi ENE 6.9 mph - N/A Rain , Thunderstorm Rain
6:55 AM 50.9 °F 50.9 °F 100% 29.80 in 3.0 mi ENE 9.2 mph - 0.07 in Rain Rain
7:15 AM 50.9 °F 50.9 °F 100% 29.80 in 3.0 mi East 5.8 mph - 0.07 in Rain Rain
7:35 AM 51.3 °F 51.3 °F 100% 29.81 in 3.0 mi East 9.2 mph - 0.14 in Rain Rain
7:55 AM 51.3 °F 51.3 °F 100% 29.78 in 3.0 mi East 10.4 mph - 0.23 in Rain , Thunderstorm Rain
8:15 AM 51.8 °F 51.8 °F 100% 29.77 in 7.0 mi East 6.9 mph - 0.01 in Rain Light Rain
8:35 AM 52.3 °F 52.3 °F 100% 29.77 in 10.0 mi ENE 3.5 mph - 0.01 in   Light Drizzle
8:55 AM 52.5 °F 52.5 °F 100% 29.80 in 10.0 mi SSW 3.5 mph - 0.02 in Rain Rain
9:15 AM 53.1 °F 53.1 °F 100% 29.77 in 1.5 mi East 6.9 mph - 0.11 in Rain Rain
9:35 AM 54.3 °F 54.3 °F 100% 29.76 in 10.0 mi East 5.8 mph - 0.12 in   Overcast
9:55 AM 55.2 °F 55.2 °F 100% 29.74 in 10.0 mi East 8.1 mph - 0.12 in   Overcast
10:15 AM 56.3 °F 56.3 °F 100% 29.73 in 10.0 mi NE 4.6 mph - N/A   Overcast
10:35 AM 57.7 °F 57.7 °F 100% 29.75 in 10.0 mi SE 4.6 mph - N/A   Overcast
10:55 AM 58.5 °F 58.5 °F 100% 29.75 in 10.0 mi SSE 3.5 mph - N/A   Overcast
11:15 AM 59.2 °F 59.2 °F 100% 29.75 in 10.0 mi SSE 4.6 mph - N/A   Overcast
11:35 AM 59.9 °F 59.9 °F 100% 29.76 in 7.0 mi SSE 4.6 mph - N/A   Overcast
11:55 AM 60.8 °F 60.6 °F 99% 29.76 in 7.0 mi SSE 6.9 mph - N/A   Overcast
12:15 PM 60.8 °F 60.6 °F 99% 29.77 in 5.0 mi South 4.6 mph - N/A   Overcast
12:35 PM 61.2 °F 60.8 °F 99% 29.77 in 5.0 mi SW 5.8 mph - N/A   Overcast
12:55 PM 61.9 °F 61.5 °F 99% 29.76 in 5.0 mi SSW 3.5 mph - N/A   Overcast
1:15 PM 63.5 °F 62.4 °F 96% 29.76 in 5.0 mi Calm Calm - N/A   Overcast
1:35 PM 65.5 °F 63.3 °F 93% 29.76 in 7.0 mi SSW 4.6 mph - N/A   Overcast
1:55 PM 65.3 °F 62.6 °F 91% 29.76 in 7.0 mi West 3.5 mph - N/A   Overcast
2:15 PM 66.9 °F 63.5 °F 89% 29.75 in 7.0 mi Calm Calm - N/A   Mostly Cloudy
2:35 PM 67.1 °F 63.1 °F 87% 29.76 in 7.0 mi Calm Calm - N/A   Mostly Cloudy
2:55 PM 68.5 °F 63.0 °F 82% 29.75 in 10.0 mi Calm Calm - N/A   Overcast
3:15 PM 69.3 °F 63.1 °F 81% 29.75 in 10.0 mi Calm Calm - N/A   Overcast
3:35 PM 69.1 °F 63.3 °F 82% 29.75 in 10.0 mi Calm Calm - N/A   Overcast
3:55 PM 70.2 °F 64.0 °F 81% 29.75 in 10.0 mi Calm Calm - N/A   Overcast
4:15 PM 70.9 °F 63.9 °F 78% 29.75 in 10.0 mi Calm Calm - N/A   Overcast
4:35 PM 71.2 °F 63.9 °F 77% 29.75 in 10.0 mi WSW 4.6 mph - N/A   Overcast
4:55 PM 71.6 °F 62.6 °F 73% 29.75 in 10.0 mi SW 4.6 mph - N/A   Overcast
5:15 PM 70.0 °F 63.9 °F 81% 29.74 in 10.0 mi North 5.8 mph - N/A   Overcast
5:35 PM 69.1 °F 63.9 °F 83% 29.74 in 7.0 mi Calm Calm - N/A   Overcast
5:55 PM 69.3 °F 64.2 °F 84% 29.75 in 7.0 mi Calm Calm - N/A   Overcast
6:15 PM 69.6 °F 64.6 °F 84% 29.75 in 10.0 mi WNW 3.5 mph - N/A   Overcast
6:35 PM 68.9 °F 64.4 °F 86% 29.75 in 7.0 mi Calm Calm - N/A   Overcast
6:55 PM 69.1 °F 65.3 °F 88% 29.74 in 10.0 mi West 4.6 mph - N/A   Overcast
7:15 PM 68.0 °F 63.9 °F 87% 29.72 in 7.0 mi NNE 5.8 mph - N/A   Overcast
7:35 PM 66.2 °F 62.6 °F 88% 29.73 in 7.0 mi NNE 5.8 mph - N/A   Overcast
7:55 PM 64.8 °F 61.9 °F 90% 29.74 in 5.0 mi NNE 5.8 mph - N/A   Overcast
8:15 PM 64.0 °F 61.7 °F 92% 29.73 in 5.0 mi North 8.1 mph - N/A   Overcast
8:35 PM 62.8 °F 61.3 °F 95% 29.74 in 4.0 mi NNW 9.2 mph - N/A   Overcast
8:55 PM 61.7 °F 60.3 °F 95% 29.76 in 4.0 mi NNE 5.8 mph - N/A   Overcast
9:15 PM 61.0 °F 60.1 °F 97% 29.79 in 4.0 mi Calm Calm - N/A   Scattered Clouds
9:35 PM 59.9 °F 59.4 °F 98% 29.77 in 3.0 mi North 8.1 mph - N/A   Clear
9:55 PM 59.4 °F 59.0 °F 99% 29.77 in 3.0 mi North 6.9 mph - N/A   Clear
10:15 PM 59.2 °F 59.0 °F 99% 29.78 in 3.0 mi NNE 3.5 mph - N/A   Scattered Clouds
10:35 PM 59.4 °F 59.0 °F 99% 29.79 in 3.0 mi Calm Calm - N/A   Overcast
10:55 PM 59.9 °F 59.2 °F 97% 29.79 in 3.0 mi ESE 3.5 mph - N/A   Overcast
11:15 PM 59.9 °F 59.2 °F 97% 29.81 in 3.0 mi Calm Calm - N/A   Overcast
11:35 PM 59.9 °F 59.4 °F 98% 29.81 in 3.0 mi Calm Calm - N/A   Overcast
11:55 PM 59.9 °F 59.5 °F 99% 29.80 in 3.0 mi Calm Calm - N/A   Overcast